1488960000.93,63748,8.44,73438.8,-4.27,-8.07,-7.99,0,*57
1488960002.21,63749,8.44,73442.0,-4.27,-8.07,-7.99,0,*56
1488960003.45,63750,8.44,73442.0,-4.29,-7.99,-7.87,0,*57
1488960004.7,63751,8.44,73440.5,-4.29,-7.91,-7.77,0,*51
1488960005.96,63752,8.44,73440.0,-4.29,-8.11,-7.99,0,*55
1488960007.17,63753,8.44,73440.5,-4.29,-8.37,-8.25,0,*58
1488960008.38,63754,8.44,73438.3,-4.29,-8.55,-8.37,0,*58
1488960009.58,63755,8.44,73440.0,-4.33,-8.37,-8.29,0,*59
1488960010.79,63756,8.44,73436.8,-4.29,-8.29,-8.17,0,*53
1488960012.0,63757,8.44,73440.0,-4.29,-8.41,-8.37,0,*5E
1488960013.2,63758,8.44,73438.0,-4.29,-8.25,-8.17,0,*51
1488960014.41,63759,8.44,73438.5,-4.29,-8.25,-8.25,0,*51
1488960015.64,63760,8.44,73440.8,-4.33,-8.11,-8.17,0,*56
1488960016.89,63761,8.44,73438.5,-4.33,-7.99,-7.91,0,*59
1488960018.14,63762,8.44,73440.5,-4.33,-7.99,-7.91,0,*5A
1488960019.37,63763,8.44,73442.8,-4.29,-7.87,-7.91,0,*5F
1488960020.63,63764,8.44,73436.5,-4.33,-7.73,-7.73,0,*54
1488960021.89,63765,8.44,73440.3,-4.29,-7.91,-7.99,0,*56
1488960023.09,63766,8.44,73436.8,-4.33,-8.25,-8.17,0,*57
1488960024.29,63767,8.44,73442.3,-4.33,-8.17,-8.17,0,*57
1488960025.52,63768,8.44,73442.0,-4.29,-7.91,-7.87,0,*54
1488960026.75,63769,8.44,73438.0,-4.33,-7.91,-7.87,0,*5E
1488960028.0,63770,8.44,73440.8,-4.33,-8.03,-7.99,0,*5D
1488960029.25,63771,8.44,73442.3,-4.33,-7.91,-7.73,0,*5C
1488960030.52,63772,8.44,73442.0,-4.35,-7.91,-7.77,0,*5D
1488960031.78,63773,8.44,73442.0,-4.35,-7.83,-7.65,0,*5C
1488960033.05,63774,8.44,73440.0,-4.35,-7.91,-7.77,0,*5B
1488960034.28,63775,8.44,73440.8,-4.33,-7.69,-7.49,0,*56
1488960035.53,63776,8.44,73440.8,-4.35,-7.65,-7.49,0,*5F
1488960036.79,63777,8.44,73440.3,-4.35,-7.73,-7.49,0,*59
1488960038.04,63778,8.44,73440.5,-4.33,-7.69,-7.43,0,*51
1488960039.27,63779,8.44,73440.3,-4.33,-7.49,-7.43,0,*52
1488960040.53,63780,8.44,73436.5,-4.33,-7.77,-7.57,0,*5C
1488960041.75,63781,8.44,73442.3,-4.33,-7.69,-7.49,0,*5D
1488960042.98,63782,8.44,73440.5,-4.33,-7.69,-7.49,0,*5E
1488960044.24,63783,8.44,73442.8,-4.33,-7.73,-7.57,0,*5B
1488960045.5,63784,8.44,73444.3,-4.33,-7.57,-7.35,0,*5E
1488960046.76,63785,8.44,73442.5,-4.29,-7.61,-7.43,0,*50
1488960048.02,63786,8.44,73438.3,-4.29,-7.57,-7.35,0,*57
1488960049.25,63787,8.44,73440.8,-4.33,-7.99,-7.87,0,*56
1488960050.48,63788,8.44,73440.0,-4.33,-8.17,-8.03,0,*53
1488960051.73,63789,8.44,73442.3,-4.29,-8.03,-7.91,0,*58
1488960052.96,63790,8.44,73440.3,-4.33,-7.87,-7.77,0,*50
1488960054.21,63791,8.44,73442.0,-4.33,-7.91,-7.73,0,*52
1488960055.44,63792,8.44,73442.3,-4.33,-7.87,-7.77,0,*52
1488960056.67,63793,8.44,73436.3,-4.33,-7.99,-7.87,0,*53
1488960057.93,63794,8.44,73442.3,-4.33,-7.77,-7.61,0,*5C
1488960059.18,63795,8.44,73440.3,-4.33,-7.77,-7.73,0,*5E
1488960060.42,63796,8.44,73438.5,-4.33,-7.73,-7.49,0,*50
1488960061.65,63797,8.44,73440.0,-4.33,-7.87,-7.61,0,*50
1488960062.9,63798,8.44,73442.3,-4.33,-8.11,-7.91,0,*50
1488960064.16,63799,8.44,73444.5,-4.33,-7.77,-7.61,0,*51
1488960065.42,63800,8.44,73438.3,-4.29,-7.73,-7.57,0,*54
1488960066.68,63801,8.44,73440.5,-4.33,-7.61,-7.57,0,*5D
1488960067.91,63802,8.44,73440.5,-4.33,-7.73,-7.49,0,*52
1488960069.18,63803,8.44,73442.5,-4.33,-7.73,-7.61,0,*59
1488960070.44,63804,8.44,73440.3,-4.33,-7.61,-7.43,0,*5D
1488960071.69,63805,8.44,73442.0,-4.33,-7.57,-7.35,0,*58
1488960072.95,63806,8.44,73438.0,-4.33,-7.69,-7.43,0,*57
1488960074.21,63807,8.44,73442.5,-4.33,-7.99,-7.77,0,*5E
1488960075.43,63808,8.44,73438.5,-4.33,-7.91,-7.87,0,*56
1488960076.69,63809,8.44,73440.8,-4.33,-7.77,-7.61,0,*57
1488960077.92,63810,8.44,73438.8,-4.33,-7.77,-7.49,0,*55
1488960079.18,63811,8.44,73440.3,-4.33,-7.73,-7.57,0,*5F
1488960080.43,63812,8.44,73442.3,-4.29,-7.91,-7.77,0,*59
1488960081.66,63813,8.44,73440.3,-4.33,-7.87,-7.61,0,*53
1488960082.9,63814,8.44,73440.8,-4.33,-7.73,-7.49,0,*55
1488960084.13,63815,8.44,73440.5,-4.33,-7.61,-7.49,0,*57
1488960085.38,63816,8.44,73442.8,-4.33,-7.69,-7.61,0,*56
1488960086.62,63817,8.44,73442.0,-4.33,-7.73,-7.49,0,*56
1488960087.88,63818,8.44,73438.8,-4.29,-7.73,-7.73,0,*5B
1488960089.13,63819,8.44,73438.0,-4.33,-7.77,-7.73,0,*55
1488960090.36,63820,8.44,73440.8,-4.33,-7.69,-7.49,0,*59
1488960091.59,63821,8.44,73438.3,-4.33,-7.49,-7.35,0,*51
1488960092.84,63822,8.44,73440.8,-4.33,-7.61,-7.35,0,*58
1488960094.11,63823,8.44,73440.8,-4.29,-7.57,-7.43,0,*56
1488960095.31,63824,8.44,73440.3,-4.29,-7.49,-7.23,0,*58
1488960096.57,63825,8.44,73440.0,-4.27,-7.31,-7.15,0,*5D
1488960097.82,63826,8.44,73442.8,-4.27,-7.39,-7.15,0,*56
1488960099.07,63827,8.44,73438.3,-4.29,-7.43,-7.31,0,*52
1488960100.33,63828,8.44,73440.0,-4.27,-7.31,-7.19,0,*5C
1488960101.61,63829,8.44,73440.0,-4.27,-7.43,-7.27,0,*55
1488960102.89,63830,8.44,73440.3,-4.27,-7.43,-7.31,0,*5A
1488960104.15,63831,8.44,73440.3,-4.29,-7.69,-7.57,0,*5D
1488960105.4,63832,8.5,73446.5,-4.27,-7.53,-7.39,0,*51
1488960106.67,63833,8.44,73440.8,-4.27,-7.39,-7.05,0,*53
1488960107.93,63834,8.44,73438.3,-4.27,-7.39,-7.05,0,*54
1488960109.2,63835,8.44,73442.0,-4.27,-7.31,-7.05,0,*5D
1488960110.48,63836,8.44,73440.8,-4.27,-7.31,-7.01,0,*5A
1488960111.72,63837,8.44,73440.5,-4.25,-7.27,-7.01,0,*5E
1488960112.96,63838,8.44,73444.3,-4.25,-7.19,-6.93,0,*56
1488960114.23,63839,8.44,73442.5,-4.27,-7.31,-6.93,0,*5F
1488960115.46,63840,8.44,73440.5,-4.25,-7.31,-7.15,0,*5C
1488960116.73,63841,8.44,73442.3,-4.23,-7.27,-7.01,0,*59
1488960117.98,63842,8.44,73440.3,-4.23,-7.15,-6.97,0,*55
1488960119.21,63843,8.44,73446.0,-4.23,-7.15,-6.89,0,*5B
1488960120.44,63844,8.44,73446.3,-4.23,-7.15,-6.89,0,*5C
1488960121.7,63845,8.44,73442.5,-4.23,-7.35,-7.15,0,*5B
1488960122.93,63846,8.44,73446.3,-4.21,-7.27,-7.11,0,*5D
1488960124.2,63847,8.44,73442.0,-4.23,-7.27,-7.01,0,*5F
1488960125.43,63848,8.44,73442.0,-4.21,-7.23,-6.97,0,*58
1488960126.67,63849,8.44,73442.0,-4.21,-7.35,-7.11,0,*51
1488960127.9,63850,8.44,73440.3,-4.21,-7.39,-7.23,0,*54
1488960129.15,63851,8.44,73444.8,-4.23,-7.39,-7.15,0,*52
1488960130.42,63852,8.44,73440.8,-4.23,-7.61,-7.35,0,*5E
1488960131.65,63853,8.44,73446.0,-4.21,-7.69,-7.53,0,*55
1488960132.88,63854,8.5,73446.5,-4.21,-7.49,-7.27,0,*53
1488960134.11,63855,8.5,73444.8,-4.21,-7.49,-7.27,0,*52
1488960135.33,63856,8.44,73444.5,-4.21,-7.39,-7.15,0,*57
1488960136.59,63857,8.44,73440.8,-4.21,-7.35,-7.01,0,*5F
1488960137.82,63858,8.44,73446.5,-4.21,-7.39,-7.15,0,*59
1488960139.04,63859,8.5,73446.0,-4.21,-7.77,-7.49,0,*5B
1488960140.3,63860,8.44,73442.5,-4.19,-7.43,-7.19,0,*58
1488960141.53,63861,8.5,73444.8,-4.19,-7.49,-7.19,0,*53
1488960142.81,63862,8.5,73446.3,-4.19,-7.99,-7.77,0,*55
1488960144.09,63863,8.44,73442.5,-4.19,-7.99,-7.77,0,*54
1488960145.35,63864,8.44,73440.8,-4.19,-7.73,-7.49,0,*5A
1488960146.63,63865,8.44,73444.0,-4.19,-7.65,-7.35,0,*57
1488960147.86,63866,8.44,73444.0,-4.17,-7.53,-7.31,0,*5B
1488960149.12,63867,8.5,73446.0,-4.19,-7.87,-7.73,0,*5B
1488960150.37,63868,8.5,73446.0,-4.19,-7.49,-7.31,0,*50
1488960151.65,63869,8.5,73446.3,-4.19,-7.57,-7.35,0,*5A
1488960152.88,63870,8.44,73444.3,-4.19,-7.49,-7.23,0,*5A
1488960154.17,63871,8.44,73446.0,-4.19,-7.57,-7.31,0,*57
1488960155.45,63872,8.44,73442.5,-4.19,-7.57,-7.31,0,*54
1488960156.71,63873,8.5,73446.0,-4.17,-7.43,-7.27,0,*59
1488960157.97,63874,8.5,73446.0,-4.17,-7.43,-7.27,0,*5E
1488960159.22,63875,8.5,73444.0,-4.19,-7.73,-7.49,0,*5A
1488960160.5,63876,8.5,73444.3,-4.19,-7.77,-7.65,0,*53
1488960161.76,63877,8.44,73446.0,-4.17,-7.43,-7.31,0,*5A
1488960163.04,63878,8.5,73446.8,-4.19,-7.43,-7.31,0,*5B
1488960164.32,63879,8.5,73444.3,-4.19,-7.43,-7.35,0,*5E
1488960165.58,63880,8.44,73442.8,-4.19,-7.31,-7.23,0,*5A
1488960166.83,63881,8.5,73444.3,-4.17,-7.39,-7.27,0,*59
1488960168.09,63882,8.44,73442.0,-4.17,-7.43,-7.31,0,*50
1488960169.37,63883,8.5,73444.0,-4.19,-7.73,-7.57,0,*5C
1488960170.6,63884,8.5,73444.5,-4.17,-7.53,-7.31,0,*57
1488960171.83,63885,8.44,73442.3,-4.17,-7.31,-7.15,0,*54
1488960173.12,63886,8.5,73444.0,-4.19,-7.61,-7.43,0,*5F
1488960174.35,63887,8.44,73446.5,-4.17,-7.53,-7.43,0,*51
1488960175.61,63888,8.44,73444.0,-4.17,-7.57,-7.39,0,*57
1488960176.87,63889,8.5,73446.0,-4.19,-7.65,-7.49,0,*5E
1488960178.13,63890,8.44,73444.5,-4.17,-7.57,-7.57,0,*56
1488960179.41,63891,8.44,73446.3,-4.19,-7.61,-7.35,0,*58
1488960180.67,63892,8.5,73446.0,-4.17,-7.43,-7.27,0,*56
1488960181.93,63893,8.5,73444.5,-4.17,-7.43,-7.27,0,*57
1488960183.19,63894,8.44,73446.8,-4.17,-7.57,-7.43,0,*57
1488960184.45,63895,8.44,73442.8,-4.17,-7.61,-7.43,0,*53
1488960185.73,63896,8.44,73442.0,-4.19,-7.39,-7.27,0,*51
1488960186.98,63897,8.44,73442.0,-4.17,-7.39,-7.27,0,*5E
1488960188.26,63898,8.44,73442.8,-4.19,-7.35,-7.31,0,*54
1488960189.52,63899,8.5,73444.8,-4.17,-7.61,-7.39,0,*52
1488960190.78,63900,8.5,73446.3,-4.17,-7.61,-7.57,0,*5B
1488960192.06,63901,8.44,73444.5,-4.19,-7.43,-7.31,0,*54
1488960193.33,63902,8.5,73446.0,-4.15,-7.39,-7.27,0,*51
1488960194.59,63903,8.5,73448.0,-4.17,-7.31,-7.27,0,*5A
1488960195.84,63904,8.5,73446.8,-4.19,-7.49,-7.31,0,*5B
1488960197.07,63905,8.5,73446.3,-4.17,-7.31,-7.19,0,*51
1488960198.32,63906,8.5,73446.8,-4.19,-7.31,-7.15,0,*50
1488960199.57,63907,8.5,73446.8,-4.17,-7.27,-7.05,0,*59
1488960200.83,63908,8.5,73444.5,-4.17,-7.57,-7.39,0,*5E
1488960202.11,63909,8.5,73446.3,-4.19,-7.61,-7.35,0,*58
1488960203.37,63910,8.5,73446.5,-4.17,-7.43,-7.27,0,*5D
1488960204.62,63911,8.44,73444.5,-4.17,-7.43,-7.27,0,*5C
1488960205.89,63912,8.44,73446.3,-4.17,-7.61,-7.43,0,*5D
1488960207.12,63913,8.5,73444.0,-4.17,-7.53,-7.31,0,*58
1488960208.41,63914,8.5,73446.0,-4.19,-7.73,-7.43,0,*56
1488960209.69,63915,8.5,73448.8,-4.19,-7.73,-7.61,0,*57
1488960210.98,63916,8.5,73450.5,-4.19,-7.61,-7.35,0,*56
1488960212.26,63917,8.5,73446.3,-4.19,-7.57,-7.35,0,*52
1488960213.51,63918,8.5,73444.8,-4.17,-7.31,-7.05,0,*50
1488960214.74,63919,8.5,73446.3,-4.17,-7.31,-7.15,0,*50
1488960215.96,63920,8.5,73446.5,-4.17,-7.39,-7.19,0,*5E
1488960217.22,63921,8.5,73444.0,-4.15,-7.53,-7.27,0,*5C
1488960218.47,63922,8.5,73450.0,-4.17,-7.69,-7.57,0,*53
1488960219.76,63923,8.5,73448.5,-4.19,-7.73,-7.61,0,*52
1488960221.03,63924,8.5,73448.5,-4.17,-7.57,-7.43,0,*5D
1488960222.28,63925,8.5,73446.5,-4.17,-7.69,-7.31,0,*54
1488960223.55,63926,8.5,73450.0,-4.17,-7.73,-7.57,0,*5C
1488960224.8,63927,8.5,73450.0,-4.17,-7.69,-7.57,0,*56
1488960226.08,63928,8.5,73446.3,-4.19,-7.77,-7.73,0,*5E
1488960227.35,63929,8.5,73448.8,-4.17,-7.73,-7.61,0,*56
1488960228.58,63930,8.5,73448.5,-4.17,-7.87,-7.73,0,*56
1488960229.87,63931,8.5,73450.5,-4.19,-7.73,-7.61,0,*51
1488960231.15,63932,8.5,73446.3,-4.19,-7.57,-7.35,0,*55
1488960232.43,63933,8.5,73450.0,-4.19,-7.77,-7.61,0,*57
1488960233.7,63934,8.5,73448.0,-4.17,-7.73,-7.61,0,*5A
1488960234.99,63935,8.5,73444.8,-4.19,-7.57,-7.61,0,*53
1488960236.27,63936,8.5,73448.0,-4.19,-7.77,-7.65,0,*56
1488960237.55,63937,8.5,73448.5,-4.19,-7.77,-7.65,0,*57
1488960238.82,63938,8.5,73446.5,-4.19,-7.91,-7.73,0,*57
1488960240.08,63939,8.5,73444.0,-4.19,-7.87,-7.73,0,*51
1488960241.34,63940,8.5,73448.0,-4.17,-7.61,-7.39,0,*57
1488960242.59,63941,8.5,73446.8,-4.19,-7.65,-7.49,0,*5B
1488960243.85,63942,8.5,73446.0,-4.17,-7.57,-7.39,0,*50
1488960245.09,63943,8.5,73450.8,-4.21,-7.83,-7.65,0,*54
1488960246.37,63944,8.44,73442.8,-4.19,-7.73,-7.65,0,*57
1488960247.66,63945,8.5,73444.3,-4.19,-7.57,-7.43,0,*54
1488960248.95,63946,8.5,73446.8,-4.19,-7.73,-7.61,0,*51
1488960250.23,63947,8.5,73444.0,-4.19,-7.77,-7.77,0,*53
1488960251.51,63948,8.5,73444.0,-4.19,-7.77,-7.73,0,*58
1488960252.79,63949,8.5,73446.5,-4.19,-7.57,-7.35,0,*59
1488960254.07,63950,8.5,73448.0,-4.19,-7.35,-7.31,0,*51
1488960255.36,63951,8.5,73448.3,-4.19,-7.57,-7.35,0,*50
1488960256.64,63952,8.5,73450.3,-4.19,-7.43,-7.35,0,*56
1488960257.9,63953,8.5,73450.8,-4.17,-7.61,-7.39,0,*55
1488960259.16,63954,8.5,73448.8,-4.17,-7.73,-7.57,0,*59
1488960260.41,63955,8.5,73446.5,-4.19,-7.91,-7.87,0,*57
1488960261.64,63956,8.5,73446.5,-4.21,-8.17,-7.95,0,*5D
1488960262.87,63957,8.5,73448.3,-4.21,-7.83,-7.65,0,*51
1488960264.13,63958,8.5,73450.0,-4.21,-7.91,-7.69,0,*51
1488960265.36,63959,8.5,73450.0,-4.21,-7.91,-7.83,0,*54
1488960266.58,63960,8.5,73450.3,-4.21,-7.69,-7.49,0,*5F
1488960267.82,63961,8.5,73448.8,-4.21,-7.61,-7.49,0,*56
1488960269.05,63962,8.5,73450.5,-4.21,-7.61,-7.49,0,*55
1488960270.3,63963,8.5,73446.0,-4.19,-7.49,-7.35,0,*5E
1488960271.58,63964,8.5,73448.0,-4.19,-7.57,-7.31,0,*52
1488960272.87,63965,8.5,73448.0,-4.19,-7.57,-7.35,0,*57
1488960274.13,63966,8.5,73450.5,-4.21,-7.61,-7.39,0,*56
1488960275.38,63967,8.5,73448.5,-4.19,-7.65,-7.49,0,*5F
1488960276.66,63968,8.5,73450.8,-4.19,-7.65,-7.35,0,*5B
1488960277.92,63969,8.5,73444.5,-4.19,-7.65,-7.49,0,*51
1488960279.2,63970,8.5,73448.5,-4.19,-7.65,-7.35,0,*52
1488960280.45,63971,8.5,73444.8,-4.19,-7.87,-7.77,0,*59
1488960281.71,63972,8.5,73450.8,-4.19,-7.87,-7.73,0,*5E
1488960282.99,63973,8.5,73450.3,-4.19,-7.77,-7.73,0,*50
1488960284.28,63974,8.5,73450.5,-4.19,-7.73,-7.61,0,*50
1488960285.56,63975,8.5,73448.8,-4.19,-7.77,-7.61,0,*55
1488960286.81,63976,8.5,73448.3,-4.19,-7.61,-7.49,0,*5B
1488960288.1,63977,8.5,73450.5,-4.19,-7.73,-7.61,0,*53
1488960289.39,63978,8.5,73448.5,-4.19,-7.73,-7.61,0,*5C
1488960290.65,63979,8.5,73448.0,-4.19,-7.49,-7.43,0,*54
1488960291.93,63980,8.5,73450.0,-4.19,-7.65,-7.61,0,*5C
1488960293.19,63981,8.5,73448.5,-4.17,-7.61,-7.61,0,*57
1488960294.48,63982,8.5,73448.0,-4.19,-7.73,-7.61,0,*59
1488960295.71,63983,8.5,73450.3,-4.17,-7.53,-7.43,0,*54
1488960296.98,63984,8.5,73450.3,-4.17,-7.61,-7.61,0,*52
1488960298.21,63985,8.5,73452.0,-4.17,-7.53,-7.31,0,*57
1488960299.44,63986,8.5,73452.0,-4.17,-7.53,-7.39,0,*5C
1488960300.69,63987,8.5,73448.5,-4.17,-7.43,-7.31,0,*54
1488960301.92,63988,8.5,73448.5,-4.17,-7.53,-7.31,0,*5A
1488960303.15,63989,8.5,73450.5,-4.17,-7.53,-7.39,0,*53
1488960304.41,63990,8.5,73450.5,-4.17,-7.57,-7.39,0,*5F
1488960305.68,63991,8.5,73452.0,-4.17,-7.61,-7.43,0,*56
1488960306.94,63992,8.5,73446.5,-4.17,-7.73,-7.69,0,*5E
1488960308.14,63993,8.5,73452.3,-4.17,-7.87,-7.83,0,*50
1488960309.38,63994,8.5,73448.8,-4.17,-7.99,-7.83,0,*58
1488960310.64,63995,8.5,73446.0,-4.17,-7.61,-7.61,0,*52
1488960311.9,63996,8.5,73448.8,-4.17,-7.61,-7.61,0,*51
1488960313.16,63997,8.5,73448.0,-4.19,-7.65,-7.49,0,*50
1488960314.42,63998,8.5,73448.8,-4.17,-7.57,-7.31,0,*5F
1488960315.68,63999,8.5,73450.0,-4.17,-7.73,-7.61,0,*5D
1488960316.96,64000,8.5,73454.0,-4.19,-7.77,-7.61,0,*59
1488960318.22,64001,8.5,73450.3,-4.19,-7.61,-7.49,0,*55
1488960319.48,64002,8.5,73448.5,-4.17,-7.43,-7.31,0,*57
1488960320.73,64003,8.5,73452.5,-4.17,-7.61,-7.39,0,*5E
1488960322.0,64004,8.5,73452.5,-4.17,-7.61,-7.43,0,*54
1488960323.26,64005,8.5,73454.0,-4.17,-7.61,-7.43,0,*55
1488960324.52,64006,8.5,73448.5,-4.17,-7.43,-7.31,0,*53
1488960325.78,64007,8.5,73450.0,-4.17,-7.57,-7.31,0,*57
1488960327.04,64008,8.5,73450.5,-4.17,-7.57,-7.39,0,*50
1488960328.3,64009,8.5,73450.8,-4.17,-7.57,-7.39,0,*51
1488960329.53,64010,8.5,73448.5,-4.17,-7.53,-7.31,0,*55
1488960330.78,64011,8.5,73452.3,-4.15,-7.53,-7.27,0,*51
1488960332.02,64012,8.5,73452.5,-4.15,-7.87,-7.87,0,*51
1488960333.28,64013,8.5,73450.3,-4.17,-7.73,-7.61,0,*51
1488960334.51,64014,8.5,73452.3,-4.17,-7.83,-7.69,0,*51
1488960335.77,64015,8.5,73448.8,-4.17,-7.57,-7.43,0,*51
1488960337.03,64016,8.5,73450.5,-4.17,-7.69,-7.61,0,*5F
1488960338.26,64017,8.5,73450.5,-4.17,-7.87,-7.69,0,*56
1488960339.49,64018,8.5,73448.8,-4.17,-7.83,-7.69,0,*5D
1488960340.74,64019,8.5,73450.3,-4.19,-7.61,-7.49,0,*5C
1488960342.0,64020,8.5,73450.5,-4.17,-7.69,-7.61,0,*5A
1488960343.28,64021,8.5,73448.5,-4.19,-7.91,-7.77,0,*55
1488960344.54,64022,8.5,73452.8,-4.17,-7.57,-7.39,0,*58
1488960345.77,64023,8.5,73448.8,-4.17,-7.31,-7.19,0,*5B
1488960347.0,64024,8.5,73452.8,-4.17,-7.53,-7.31,0,*52
1488960348.26,64025,8.5,73450.0,-4.17,-7.31,-7.27,0,*50
1488960349.51,64026,8.5,73452.8,-4.17,-7.69,-7.57,0,*59
1488960350.77,64027,8.5,73448.3,-4.17,-7.61,-7.39,0,*58
1488960352.0,64028,8.5,73452.0,-4.17,-7.43,-7.19,0,*55
1488960353.26,64029,8.5,73450.3,-4.17,-7.31,-7.01,0,*58
1488960354.49,64030,8.5,73450.5,-4.17,-7.53,-7.31,0,*57
1488960355.75,64031,8.5,73448.0,-4.17,-7.57,-7.31,0,*52
1488960357.01,64032,8.5,73448.0,-4.17,-7.61,-7.31,0,*54
1488960358.29,64033,8.5,73452.0,-4.15,-7.57,-7.31,0,*52
1488960359.55,64034,8.5,73448.3,-4.15,-7.43,-7.15,0,*56
1488960360.81,64035,8.5,73452.3,-4.15,-7.39,-7.05,0,*5B
1488960362.07,64036,8.5,73450.5,-4.15,-7.31,-7.15,0,*51
1488960363.32,64037,8.5,73448.3,-4.15,-7.53,-7.31,0,*52
1488960364.57,64038,8.5,73450.5,-4.15,-7.53,-7.31,0,*5D
1488960365.8,64039,8.5,73450.5,-4.13,-7.39,-7.23,0,*55
1488960367.04,64040,8.5,73450.0,-4.13,-7.35,-7.15,0,*52
1488960368.27,64041,8.5,73448.5,-4.13,-7.39,-7.23,0,*5A
1488960369.52,64042,8.5,73448.0,-4.11,-7.27,-7.15,0,*51
1488960370.77,64043,8.44,73446.5,-4.11,-7.53,-7.27,0,*52
1488960372.01,64044,8.5,73450.0,-4.11,-7.49,-7.35,0,*5D
1488960373.27,64045,8.5,73454.5,-4.11,-7.35,-7.15,0,*55
1488960374.49,64046,8.5,73452.5,-4.09,-7.35,-7.23,0,*5A
1488960375.72,64047,8.5,73454.3,-4.09,-7.39,-7.23,0,*57
1488960376.97,64048,8.5,73452.8,-4.11,-7.35,-7.15,0,*58
1488960378.22,64049,8.5,73450.3,-4.11,-7.39,-7.23,0,*50
1488960379.44,64050,8.5,73448.5,-4.09,-7.83,-7.69,0,*5E
1488960380.69,64051,8.5,73454.3,-4.09,-7.77,-7.69,0,*54
1488960381.94,64052,8.5,73454.0,-4.11,-7.39,-7.23,0,*5A
1488960383.19,64053,8.5,73450.8,-4.09,-7.57,-7.27,0,*5E
1488960384.39,64054,8.5,73452.0,-4.09,-7.49,-7.23,0,*52
1488960385.64,64055,8.5,73452.0,-4.09,-7.39,-7.27,0,*50
1488960386.86,64056,8.5,73454.3,-4.09,-7.35,-7.23,0,*5B
1488960388.09,64057,8.5,73454.0,-4.09,-7.27,-7.11,0,*58
1488960389.33,64058,8.5,73452.0,-4.03,-7.27,-7.05,0,*58
1488960390.54,64059,8.5,73454.3,-4.05,-7.53,-7.23,0,*58
1488960391.8,64060,8.5,73452.5,-4.03,-7.43,-7.27,0,*51
1488960393.02,64061,8.5,73454.0,-4.05,-7.49,-7.31,0,*5B
1488960394.26,64062,8.5,73452.3,-4.05,-7.31,-7.11,0,*55
1488960395.48,64063,8.5,73448.8,-4.03,-7.19,-7.05,0,*5D
1488960396.71,64064,8.5,73452.5,-4.03,-7.19,-7.01,0,*5E
1488960397.93,64065,8.5,73454.3,-4.03,-7.49,-7.27,0,*5E
1488960399.15,64066,8.5,73448.0,-4.03,-7.19,-7.05,0,*58
1488960400.38,64067,8.5,73454.0,-4.03,-7.27,-7.15,0,*55
1488960401.6,64068,8.5,73454.5,-4.03,-7.19,-7.05,0,*56
1488960402.8,64069,8.5,73450.8,-4.03,-7.15,-6.89,0,*5E
1488960404.03,64070,8.5,73452.5,-4.03,-7.15,-6.93,0,*5D
1488960405.25,64071,8.5,73454.3,-4.03,-7.19,-7.05,0,*5E
1488960406.51,64072,8.5,73452.8,-4.01,-7.05,-6.77,0,*56
1488960407.73,64073,8.5,73452.8,-4.01,-7.15,-6.89,0,*57
1488960408.98,64074,8.5,73454.5,-4.01,-7.19,-7.05,0,*59
1488960410.21,64075,8.44,73448.3,-3.99,-7.01,-6.85,0,*5E
1488960411.45,64076,8.44,73448.3,-3.99,-7.11,-6.97,0,*5F
1488960412.67,64077,8.44,73450.5,-3.99,-7.01,-6.89,0,*50
1488960413.93,64078,8.5,73452.8,-3.97,-7.11,-6.97,0,*5F
1488960415.17,64079,8.44,73450.5,-3.97,-7.23,-7.11,0,*50
1488960416.4,64080,8.5,73452.3,-3.95,-7.11,-6.97,0,*5A
1488960417.66,64081,8.44,73448.5,-3.97,-7.15,-6.97,0,*5D
1488960418.93,64082,8.44,73450.3,-3.97,-7.27,-7.01,0,*51
1488960420.2,64083,8.44,73452.5,-3.97,-7.35,-7.23,0,*53
1488960421.45,64084,8.5,73452.3,-3.97,-7.53,-7.27,0,*50
1488960422.69,64085,8.44,73448.5,-3.97,-7.53,-7.23,0,*55
1488960423.96,64086,8.44,73448.3,-3.97,-7.39,-7.35,0,*5D
1488960425.22,64087,8.44,73450.3,-3.97,-7.53,-7.43,0,*51
1488960426.48,64088,8.5,73452.0,-3.97,-7.53,-7.27,0,*5C
1488960427.73,64089,8.44,73450.8,-3.97,-7.53,-7.43,0,*5F
1488960428.99,64090,8.44,73450.8,-3.97,-7.65,-7.53,0,*53
1488960430.28,64091,8.44,73450.8,-3.97,-7.57,-7.57,0,*57
1488960431.54,64092,8.44,73448.8,-3.97,-7.43,-7.23,0,*52
1488960432.8,64093,8.44,73450.8,-3.97,-7.35,-7.11,0,*53
1488960434.06,64094,8.44,73450.8,-3.97,-7.27,-7.11,0,*57
1488960435.29,64095,8.44,73448.3,-3.97,-7.23,-7.11,0,*52
1488960436.5,64096,8.44,73448.8,-3.95,-7.19,-7.11,0,*5A
1488960437.74,64097,8.44,73452.8,-3.97,-7.23,-7.11,0,*50
1488960438.96,64098,8.44,73454.5,-3.95,-7.19,-7.05,0,*51
1488960440.18,64099,8.44,73450.5,-3.95,-7.23,-7.05,0,*59
1488960441.4,64100,8.44,73450.0,-3.95,-7.05,-6.85,0,*55
1488960442.64,64101,8.44,73454.3,-3.95,-6.97,-6.81,0,*5A
1488960443.87,64102,8.44,73448.0,-3.95,-7.35,-7.11,0,*58
1488960445.12,64103,8.44,73448.3,-3.93,-7.39,-7.23,0,*52
1488960446.31,64104,8.44,73452.5,-3.95,-7.53,-7.49,0,*53
1488960447.57,64105,8.44,73448.0,-3.95,-7.73,-7.65,0,*5E
1488960448.85,64106,8.44,73450.5,-3.97,-7.77,-7.57,0,*5A
1488960450.08,64107,8.44,73450.8,-3.95,-7.53,-7.39,0,*57
1488960451.3,64108,8.44,73450.3,-3.95,-7.49,-7.35,0,*5F
1488960452.5,64109,8.44,73448.0,-3.95,-7.49,-7.23,0,*59
1488960453.76,64110,8.44,73450.5,-3.97,-7.53,-7.27,0,*5C
1488960454.99,64111,8.44,73454.8,-3.95,-7.35,-7.11,0,*5A
1488960456.24,64112,8.44,73454.0,-3.97,-7.27,-7.11,0,*58
1488960457.5,64113,8.44,73452.5,-3.97,-7.53,-7.27,0,*5F
1488960458.76,64114,8.44,73450.0,-3.97,-7.43,-7.23,0,*5D
1488960460.01,64115,8.44,73452.5,-3.95,-7.65,-7.39,0,*51
1488960461.27,64116,8.5,73456.0,-3.95,-7.61,-7.39,0,*56
1488960462.52,64117,8.44,73454.5,-3.95,-7.57,-7.35,0,*5E
1488960463.77,64118,8.44,73454.3,-3.97,-7.53,-7.39,0,*5B
1488960465.0,64119,8.44,73454.3,-3.95,-7.31,-7.11,0,*56
1488960466.22,64120,8.44,73454.5,-3.95,-7.23,-7.05,0,*5A
1488960467.45,64121,8.44,73452.5,-3.95,-7.61,-7.49,0,*55
1488960468.67,64122,8.44,73452.8,-3.95,-7.49,-7.35,0,*57
1488960469.9,64123,8.44,73454.0,-3.95,-7.61,-7.49,0,*57
1488960471.12,64124,8.44,73450.3,-3.95,-7.65,-7.49,0,*54
1488960472.37,64125,8.44,73454.8,-3.95,-7.61,-7.39,0,*56
1488960473.66,64126,8.44,73454.3,-3.97,-7.65,-7.43,0,*5E
1488960474.89,64127,8.44,73452.3,-3.95,-7.73,-7.53,0,*5B
1488960476.14,64128,8.44,73452.3,-3.95,-7.77,-7.65,0,*55
1488960477.39,64129,8.44,73452.0,-3.97,-7.83,-7.69,0,*51
1488960478.62,64130,8.44,73452.5,-3.95,-7.87,-7.73,0,*54
1488960479.84,64131,8.44,73454.0,-3.95,-7.53,-7.35,0,*5E
1488960481.04,64132,8.44,73452.3,-3.95,-7.49,-7.23,0,*51
1488960482.25,64133,8.44,73452.3,-3.95,-7.23,-7.11,0,*5D
1488960483.5,64134,8.44,73452.5,-3.97,-7.65,-7.53,0,*5C
1488960484.76,64135,8.44,73452.3,-3.95,-7.73,-7.61,0,*59
1488960485.99,64136,8.44,73454.0,-3.95,-7.31,-7.11,0,*5B
1488960487.22,64137,8.44,73452.3,-3.95,-7.35,-7.19,0,*56
1488960488.44,64138,8.44,73450.5,-3.95,-7.73,-7.53,0,*55
1488960489.72,64139,8.44,73450.5,-3.97,-7.95,-7.77,0,*58
1488960490.95,64140,8.44,73448.5,-3.95,-7.91,-7.87,0,*5F
1488960492.18,64141,8.44,73450.5,-3.95,-7.99,-7.87,0,*56
1488960493.43,64142,8.44,73448.0,-3.95,-7.73,-7.65,0,*5D
1488960494.66,64143,8.44,73452.5,-3.95,-7.61,-7.53,0,*5A
1488960495.94,64144,8.44,73456.3,-3.97,-7.65,-7.65,0,*5E
1488960497.14,64145,8.44,73452.8,-3.95,-7.49,-7.49,0,*5D
1488960498.37,64146,8.44,73454.8,-3.95,-7.35,-7.11,0,*58
1488960499.62,64147,8.44,73456.0,-3.95,-7.61,-7.39,0,*52
1488960500.87,64148,8.44,73454.0,-3.95,-7.65,-7.39,0,*59
1488960502.09,64149,8.44,73452.8,-3.95,-7.53,-7.39,0,*5D
1488960503.38,64150,8.44,73458.5,-3.97,-7.43,-7.39,0,*56
1488960504.6,64151,8.44,73454.5,-3.95,-7.49,-7.35,0,*53
1488960505.85,64152,8.44,73454.0,-3.93,-7.31,-7.11,0,*5F
1488960507.1,64153,8.44,73456.8,-3.93,-7.19,-6.97,0,*5B
1488960508.35,64154,8.44,73456.3,-3.91,-7.43,-7.35,0,*58
1488960509.6,64155,8.44,73448.5,-3.93,-7.39,-7.23,0,*51
1488960510.85,64156,8.44,73452.0,-3.93,-7.65,-7.53,0,*5C
1488960512.07,64157,8.44,73454.8,-3.91,-7.49,-7.43,0,*50
1488960513.32,64158,8.44,73454.0,-3.89,-7.49,-7.31,0,*53
1488960514.56,64159,8.44,73454.8,-3.91,-7.31,-7.05,0,*53
1488960515.81,64160,8.44,73454.8,-3.93,-7.35,-7.19,0,*52
1488960517.06,64161,8.44,73454.0,-3.93,-7.31,-7.11,0,*5F
1488960518.29,64162,8.44,73452.8,-3.91,-7.35,-7.19,0,*52
1488960519.52,64163,8.44,73452.8,-3.91,-7.31,-7.05,0,*5A
1488960520.77,64164,8.44,73450.0,-3.91,-7.43,-7.31,0,*5F
1488960522.02,64165,8.44,73454.8,-3.87,-7.27,-7.01,0,*58
1488960523.28,64166,8.44,73456.0,-3.89,-7.27,-7.05,0,*51
1488960524.51,64167,8.44,73452.0,-3.87,-7.23,-7.01,0,*5E
1488960525.73,64168,8.44,73452.0,-3.87,-7.23,-7.01,0,*51
1488960527.01,64169,8.44,73454.5,-3.89,-7.43,-7.43,0,*5E
1488960528.23,64170,8.44,73452.8,-3.87,-7.53,-7.39,0,*54
1488960529.48,64171,8.44,73454.5,-3.87,-7.31,-7.27,0,*5E
1488960530.73,64172,8.44,73454.5,-3.89,-7.31,-7.19,0,*5E